GW2419 Weather Reports


time (UTC)temp
C
wind
direction
speed
KPH
gust
KPH
rain 1hr
cm
rain 24hr
cm
rain mn
cm
humidity
%
barometer
mb
20260504081537 13 0 0.0 8.0 0.00 0.00 0.00 41 998.4
20260504081021 13 180 1.6 9.7 0.00 0.00 0.00 40 998.5
20260504080519 13 138 1.6 9.7 0.00 0.00 0.00 40 998.5
20260504050522 12 0 0.0 3.2 0.00 0.00 0.00 52 1001.8
20260504045521 12 0 0.0 1.6 0.00 0.00 0.00 49 1002.0
20260504045020 12 0 0.0 1.6 0.00 0.00 0.00 50 1002.1
20260504044536 12 0 0.0 0.0 0.00 0.00 0.00 49 1002.3
20260504044020 12 0 0.0 0.0 0.00 0.00 0.00 50 1002.3
20260504043522 12 0 0.0 0.0 0.00 0.00 0.00 53 1002.4
20260504043036 12 0 0.0 0.0 0.00 0.00 0.00 52 1002.5
20260504042521 12 0 0.0 0.0 0.00 0.00 0.00 51 1002.6
20260504042020 12 0 0.0 0.0 0.00 0.00 0.00 51 1002.6
20260504041535 12 0 0.0 0.0 0.00 0.00 0.00 50 1002.8
20260504041019 12 0 0.0 0.0 0.00 0.00 0.00 50 1002.8
20260504040519 12 0 0.0 0.0 0.00 0.00 0.00 49 1002.9
20260504040041 12 0 0.0 0.0 0.00 0.00 0.00 50 1003.0
20260504035522 12 0 0.0 0.0 0.00 0.00 0.00 50 1003.2
20260504035018 12 0 0.0 0.0 0.00 0.00 0.00 49 1003.3
20260504034536 12 0 0.0 0.0 0.00 0.00 0.00 51 1003.3
20260504034019 12 0 0.0 0.0 0.00 0.00 0.00 51 1003.4
20260504033519 12 0 0.0 0.0 0.00 0.00 0.00 50 1003.6
20260504033048 12 0 0.0 0.0 0.00 0.00 0.00 49 1003.8
20260504032520 12 0 0.0 0.0 0.00 0.00 0.00 49 1003.9
20260504032021 12 0 0.0 0.0 0.00 0.00 0.00 49 1003.9
20260504031536 12 0 0.0 0.0 0.00 0.00 0.00 46 1004.0
20260504031019 12 0 0.0 0.0 0.00 0.00 0.00 47 1004.1
20260504030519 13 0 0.0 0.0 0.00 0.00 0.00 46 1004.2
20260504030036 13 0 0.0 0.0 0.00 0.00 0.00 45 1004.2
20260504025520 13 0 0.0 0.0 0.00 0.00 0.00 44 1004.2
20260504025022 13 0 0.0 0.0 0.00 0.00 0.00 43 1004.2
20260504024543 13 0 0.0 0.0 0.00 0.00 0.00 42 1004.3
20260504024022 13 0 0.0 0.0 0.00 0.00 0.00 42 1004.2
20260504023521 13 0 0.0 0.0 0.00 0.00 0.00 42 1004.3
20260504023044 14 0 0.0 0.0 0.00 0.00 0.00 40 1004.2
20260504022521 14 0 0.0 0.0 0.00 0.00 0.00 39 1004.3
20260504022020 14 0 0.0 0.0 0.00 0.00 0.00 39 1004.2
20260504021541 15 0 0.0 0.0 0.00 0.00 0.00 38 1004.3
20260504021019 15 0 0.0 0.0 0.00 0.00 0.00 37 1004.2
20260504020520 15 0 0.0 0.0 0.00 0.00 0.00 37 1004.3
20260504020035 15 0 0.0 0.0 0.00 0.00 0.00 38 1004.3
20260504015521 15 0 0.0 0.0 0.00 0.00 0.00 35 1004.2
20260504015022 16 0 0.0 0.0 0.00 0.00 0.00 34 1004.2
20260504014535 16 0 0.0 0.0 0.00 0.00 0.00 34 1004.2
20260504014019 16 0 0.0 0.0 0.00 0.00 0.00 34 1004.3
20260504013520 17 0 0.0 0.0 0.00 0.00 0.00 32 1004.3
20260504013043 17 0 0.0 0.0 0.00 0.00 0.00 30 1004.4
20260504012521 17 0 0.0 0.0 0.00 0.00 0.00 32 1004.4
20260504012020 18 0 0.0 0.0 0.00 0.00 0.00 29 1004.3
20260504011540 18 0 0.0 1.6 0.00 0.00 0.00 28 1004.4
20260504011019 18 0 0.0 6.4 0.00 0.00 0.00 29 1004.4
20260504010520 18 0 0.0 6.4 0.00 0.00 0.00 26 1004.5
20260504010038 18 242 1.6 4.8 0.00 0.00 0.00 25 1004.5
20260504005521 18 231 0.0 6.4 0.00 0.00 0.00 26 1004.5
20260504005020 19 0 1.6 6.4 0.00 0.00 0.00 26 1004.6
20260504004543 19 244 1.6 6.4 0.00 0.00 0.00 26 1004.5
20260504004019 19 229 1.6 6.4 0.00 0.00 0.00 26 1004.6
20260504003520 19 236 0.0 11.3 0.00 0.00 0.00 26 1004.6
20260504003035 19 240 0.0 11.3 0.00 0.00 0.00 26 1004.5
20260504002519 19 236 1.6 6.4 0.00 0.00 0.00 26 1004.6
20260504002019 19 252 0.0 6.4 0.00 0.00 0.00 26 1004.7
20260504001535 19 164 1.6 8.0 0.00 0.00 0.00 25 1004.7
20260504001022 19 240 1.6 8.0 0.00 0.00 0.00 25 1004.7
20260504000524 19 153 1.6 8.0 0.00 0.00 0.00 25 1004.6
20260504000043 20 0 0.0 4.8 0.00 0.00 0.00 25 1004.6
20260503235521 20 360 0.0 6.4 0.00 0.00 0.00 25 1004.8
20260503235019 20 0 1.6 6.4 0.00 0.00 0.00 24 1004.8
20260503234539 20 260 1.6 8.0 0.00 0.00 0.00 25 1004.8
20260503234020 20 246 3.2 8.0 0.00 0.00 0.00 24 1004.8
20260503233519 20 245 1.6 11.3 0.00 0.00 0.00 24 1004.8
20260503233035 20 234 1.6 12.9 0.00 0.00 0.00 24 1004.8
20260503232519 20 232 1.6 12.9 0.00 0.00 0.00 24 1004.8
20260503232019 20 232 3.2 12.9 0.00 0.00 0.00 23 1004.8
20260503231536 20 249 3.2 12.9 0.00 0.00 0.00 23 1005.0
20260503231022 20 200 3.2 11.3 0.00 0.00 0.00 23 1005.0
20260503230521 20 236 3.2 9.7 0.00 0.00 0.00 24 1005.1
20260503230035 20 233 1.6 8.0 0.00 0.00 0.00 24 1005.2
20260503225521 20 159 3.2 8.0 0.00 0.00 0.00 23 1005.3
20260503225021 20 238 3.2 9.7 0.00 0.00 0.00 23 1005.3
20260503224534 20 235 3.2 11.3 0.00 0.00 0.00 24 1005.3
20260503224021 20 197 1.6 16.1 0.00 0.00 0.00 23 1005.4
20260503223524 20 236 6.4 16.1 0.00 0.00 0.00 22 1005.4
20260503223041 20 222 4.8 16.1 0.00 0.00 0.00 23 1005.3
20260503222519 20 239 6.4 16.1 0.00 0.00 0.00 22 1005.4
20260503222019 20 246 4.8 16.1 0.00 0.00 0.00 23 1005.5
20260503221537 20 241 1.6 6.4 0.00 0.00 0.00 22 1005.4
20260503221022 20 275 1.6 6.4 0.00 0.00 0.00 24 1005.4
20260503220520 20 0 1.6 14.5 0.00 0.00 0.00 23 1005.5
20260503220038 20 275 4.8 14.5 0.00 0.00 0.00 22 1005.6
20260503215521 20 240 3.2 8.0 0.00 0.00 0.00 24 1005.5
20260503215023 20 271 3.2 9.7 0.00 0.00 0.00 22 1005.7
20260503214534 20 234 3.2 9.7 0.00 0.00 0.00 23 1005.8
20260503214021 20 248 3.2 11.3 0.00 0.00 0.00 22 1005.7
20260503213521 20 237 4.8 11.3 0.00 0.00 0.00 22 1005.7
20260503213036 21 217 3.2 8.0 0.00 0.00 0.00 22 1005.7
20260503212520 20 231 1.6 9.7 0.00 0.00 0.00 23 1005.8
20260503212019 20 192 3.2 12.9 0.00 0.00 0.00 23 1005.9
20260503211542 20 236 4.8 12.9 0.00 0.00 0.00 22 1005.9
20260503211022 20 262 4.8 11.3 0.00 0.00 0.00 22 1005.7
20260503210520 20 262 1.6 14.5 0.00 0.00 0.00 24 1005.8
20260503210039 20 229 4.8 14.5 0.00 0.00 0.00 23 1006.0
20260503205526 20 238 4.8 14.5 0.00 0.00 0.00 23 1006.0
20260503205021 20 238 3.2 11.3 0.00 0.00 0.00 24 1006.1
20260503204535 20 232 4.8 11.3 0.00 0.00 0.00 22 1006.1
20260503204019 20 258 4.8 12.9 0.00 0.00 0.00 23 1006.1
20260503203519 20 234 6.4 12.9 0.00 0.00 0.00 22 1006.1
20260503203036 20 221 4.8 12.9 0.00 0.00 0.00 23 1006.1
20260503202520 20 229 3.2 9.7 0.00 0.00 0.00 24 1006.2
20260503202020 20 249 3.2 9.7 0.00 0.00 0.00 23 1006.1
20260503201603 20 0 3.2 11.3 0.00 0.00 0.00 22 1006.2
20260503201020 20 255 3.2 11.3 0.00 0.00 0.00 25 1006.2
20260503200519 20 207 3.2 16.1 0.00 0.00 0.00 23 1006.5
20260503200041 20 227 4.8 16.1 0.00 0.00 0.00 25 1006.5
20260503195521 20 231 6.4 16.1 0.00 0.00 0.00 24 1006.4
20260503195019 20 198 3.2 14.5 0.00 0.00 0.00 29 1006.5
20260503194542 20 221 6.4 14.5 0.00 0.00 0.00 25 1006.6
20260503194020 20 227 1.6 11.3 0.00 0.00 0.00 28 1006.5
20260503193522 20 218 1.6 11.3 0.00 0.00 0.00 29 1006.6
20260503193041 20 221 4.8 11.3 0.00 0.00 0.00 27 1006.6
20260503192518 19 248 4.8 16.1 0.00 0.00 0.00 27 1006.7
20260503192022 20 228 4.8 16.1 0.00 0.00 0.00 27 1006.7
20260503191538 20 230 3.2 12.9 0.00 0.00 0.00 27 1006.6
20260503191023 20 238 1.6 9.7 0.00 0.00 0.00 28 1006.6
20260503190522 19 177 3.2 14.5 0.00 0.00 0.00 30 1006.7
20260503190041 19 205 6.4 14.5 0.00 0.00 0.00 28 1006.7
20260503185519 19 227 4.8 12.9 0.00 0.00 0.00 29 1006.7
20260503185021 19 236 3.2 16.1 0.00 0.00 0.00 30 1006.6
20260503184555 19 276 4.8 16.1 0.00 0.00 0.00 31 1006.8
20260503184019 19 223 3.2 12.9 0.00 0.00 0.00 29 1006.9
20260503183520 19 236 4.8 12.9 0.00 0.00 0.00 30 1006.9
20260503183037 19 224 4.8 12.9 0.00 0.00 0.00 28 1006.8
20260503182523 19 216 1.6 9.7 0.00 0.00 0.00 31 1007.0
20260503182021 19 229 3.2 11.3 0.00 0.00 0.00 34 1007.1
20260503181538 19 212 3.2 11.3 0.00 0.00 0.00 34 1007.2
20260503181020 19 226 4.8 12.9 0.00 0.00 0.00 34 1007.1
20260503180521 19 207 3.2 12.9 0.00 0.00 0.00 36 1007.1
20260503180035 19 232 1.6 11.3 0.00 0.00 0.00 33 1007.0
20260503175521 19 240 4.8 12.9 0.00 0.00 0.00 34 1007.2
20260503175024 18 9 3.2 14.5 0.00 0.00 0.00 36 1007.2
20260503174601 18 243 3.2 14.5 0.00 0.00 0.00 35 1007.1
20260503174019 19 248 4.8 9.7 0.00 0.00 0.00 37 1007.2
20260503173521 18 38 3.2 12.9 0.00 0.00 0.00 37 1007.2
20260503173041 18 236 4.8 12.9 0.00 0.00 0.00 37 1007.3
20260503172522 18 46 1.6 9.7 0.00 0.00 0.00 39 1007.3
20260503172018 18 239 3.2 9.7 0.00 0.00 0.00 39 1007.5
20260503171536 18 246 3.2 11.3 0.00 0.00 0.00 38 1007.4
20260503171023 18 262 3.2 11.3 0.00 0.00 0.00 37 1007.4
20260503170522 18 228 4.8 11.3 0.00 0.00 0.00 37 1007.3
20260503150522 16 252 4.8 12.9 0.00 0.00 0.00 43 1007.1
20260503131021 12 237 0.0 4.8 0.00 0.00 0.00 51 1006.2
20260503130521 12 0 1.6 6.4 0.00 0.00 0.00 50 1006.3
20260503110521 11 0 0.0 3.2 0.00 0.00 0.00 49 1005.0